Concordia, KS

1:59 PM CDT on October 23, 2019 (GMT -0500)
Blosser Municipal

Weather History for KCNK - August, 2019

Change the Weather History Date:

Thursday, August 15, 2019

  Actual Average Record
Temperature  
Mean Temperature 74 °F 78 °F  
Max Temperature 83 °F 89 °F 107 °F (1983)
Min Temperature 64 °F 66 °F 50 °F (1992)
Degree Days  
Heating Degree Days 0 0  
Month to date heating degree days 0 0  
Since 1 June heating degree days 0 13  
Since 1 July heating degree days 0 0  
Cooling Degree Days 9 13  
Month to date cooling degree days 198 200  
Year to date cooling degree days 1103 990  
Since 1 June cooling degree days 1003 901  
Growing Degree Days 23 (Base 50)    
Moisture  
Dew Point 67 °F    
Average Humidity 81    
Maximum Humidity 93    
Minimum Humidity 69    
Precipitation  
Precipitation T in 0.10 in 1.32 in (1903)
Month to date precipitation 4.18 1.60  
Year to date precipitation 26.41 19.56  
Snow  
Snow 0.00 in 0.00 in T in (1973)
Month to date snowfall 0.0 0.0  
Year to date snowfall 32.3 13.7  
Since 1 July snowfall 0.0 0.0  
Snow Depth 0.00 in    
Sea Level Pressure  
Sea Level Pressure 29.96 in    
Wind  
Wind Speed 9 mph (East)    
Max Wind Speed 21 mph    
Max Gust Speed 28 mph    
Visibility 10 miles    
Events      
T = Trace of Precipitation, MM = Missing Value Source: NWS Daily Summary

Daily Weather History Graph

Daily Weather History Graph

Search for Another Location

Airport or City:

Astronomy

Aug. 15, 2019 Rise Set
Actual Time 6:42 AM CDT 8:26 PM CDT
Civil Twilight 6:14 AM CDT 8:55 PM CDT
Nautical Twilight 5:39 AM CDT 9:30 PM CDT
Astronomical Twilight 5:01 AM CDT 10:07 PM CDT
Moon 8:55 PM CDT (8/15) 6:38 AM CDT (8/15)
Length of Visible Light 14h 41m
Length of Day
13h 43m
Full, 100% of the Moon is Illuminated
Aug 15
Full
Aug 23
Last Quarter
Aug 30
New
Sep 5
First Quarter
Sep 13
Full

Hourly Weather History & Observations

Time (CDT) Temp. Heat Index Dew Point Humidity Pressure Visibility Wind Dir Wind Speed Gust Speed Precip Events Conditions
12:55 AM 66.0 °F - 64.0 °F 93% 30.09 in 10.0 mi Calm Calm - N/A   Partly Cloudy
1:55 AM 66.0 °F - 64.0 °F 93% 30.08 in 10.0 mi Calm Calm - N/A   Clear
2:55 AM 64.9 °F - 63.0 °F 93% 30.06 in 10.0 mi ESE 3.5 mph - N/A   Partly Cloudy
3:55 AM 64.0 °F - 63.0 °F 96% 30.05 in 10.0 mi SE 3.5 mph - N/A   Clear
4:55 AM 64.9 °F - 63.0 °F 93% 30.03 in 10.0 mi Calm Calm - N/A   Clear
5:55 AM 64.9 °F - 63.0 °F 93% 30.03 in 10.0 mi Calm Calm - N/A   Clear
6:55 AM 64.0 °F - 62.1 °F 93% 30.03 in 10.0 mi East 3.5 mph - N/A   Clear
7:55 AM 66.0 °F - 64.0 °F 93% 30.02 in 10.0 mi SE 6.9 mph - N/A   Clear
8:55 AM 71.1 °F - 66.0 °F 84% 30.01 in 10.0 mi SE 11.5 mph - N/A   Scattered Clouds
9:55 AM 73.0 °F - 66.0 °F 79% 30.00 in 10.0 mi SE 12.7 mph - N/A   Mostly Cloudy
10:55 AM 73.9 °F - 66.9 °F 79% 29.98 in 10.0 mi ESE 9.2 mph - N/A   Clear
11:55 AM 73.9 °F - 66.9 °F 79% 30.01 in 10.0 mi East 6.9 mph - 0.00 in   Partly Cloudy
12:55 PM 75.9 °F - 69.1 °F 79% 29.97 in 10.0 mi NE 12.7 mph - 0.00 in   Mostly Cloudy
1:08 PM 73.9 °F - 68.0 °F 82% 30.00 in 10.0 mi NE 13.8 mph - N/A   Mostly Cloudy
1:16 PM 73.9 °F - 68.0 °F 82% 29.99 in 10.0 mi ENE 13.8 mph - N/A   Overcast
1:30 PM 73.9 °F - 66.9 °F 79% 29.98 in 10.0 mi ENE 11.5 mph - N/A   Overcast
1:55 PM 75.0 °F - 66.9 °F 76% 29.92 in 10.0 mi East 15.0 mph 27.6 mph N/A   Mostly Cloudy
2:55 PM 77.0 °F - 69.1 °F 76% 29.89 in 10.0 mi ESE 13.8 mph 23.0 mph N/A   Partly Cloudy
3:55 PM 80.1 °F 83.2 °F 70.0 °F 71% 29.85 in 10.0 mi ESE 15.0 mph 24.2 mph N/A   Clear
4:55 PM 82.9 °F 88.0 °F 72.0 °F 69% 29.83 in 10.0 mi East 10.4 mph - N/A   Clear
5:55 PM 82.0 °F 86.7 °F 72.0 °F 71% 29.82 in 10.0 mi ENE 10.4 mph - N/A   Scattered Clouds
6:55 PM 81.0 °F 85.2 °F 72.0 °F 74% 29.80 in 10.0 mi East 5.8 mph - N/A   Scattered Clouds
8:55 PM 73.9 °F - 69.1 °F 85% 29.83 in 10.0 mi NNE 13.8 mph - N/A   Partly Cloudy
9:55 PM 72.0 °F - 66.9 °F 84% 29.85 in 10.0 mi ENE 11.5 mph - N/A   Partly Cloudy
10:31 PM 72.0 °F - 66.9 °F 84% 29.90 in 10.0 mi NE 9.2 mph - N/A   Mostly Cloudy
10:40 PM 72.0 °F - 66.9 °F 84% 29.91 in 10.0 mi ENE 10.4 mph - N/A   Mostly Cloudy
10:55 PM 72.0 °F - 66.9 °F 84% 29.87 in 10.0 mi ENE 9.2 mph - N/A   Overcast
11:18 PM 72.0 °F - 68.0 °F 87% 29.92 in 10.0 mi ENE 9.2 mph - N/A   Overcast
11:47 PM 72.0 °F - 66.9 °F 84% 29.92 in 10.0 mi ENE 10.4 mph 19.6 mph N/A   Overcast
11:55 PM 71.1 °F - 66.9 °F 87% 29.88 in 10.0 mi ENE 11.5 mph 21.9 mph N/A   Overcast